Regional Weather Roundup
Issued by NWS

Home | Current Version | Previous Version | Graphics & Text | Print | Product List | Glossary On
Versions: 1 2 3 4 5 6 7 8 9 10 11 12 13 14 15 16 17 18 19 20 21 22 23 24 25 26 27 28 29 30 31 32 33 34 35 36 37 38 39 40 41 42 43 44 45 46 47 48 49 50
000
ASUS43 KMPX 231801
RWRMN
WEATHER ROUNDUP FOR MINNESOTA
NATIONAL WEATHER SERVICE TWIN CITIES/CHANHASSEN MN
100 PM CDT THU MAR 23 2017


NOTE: "FAIR" INDICATES FEW OR NO CLOUDS BELOW 12,000 FEET WITH NO
SIGNIFICANT WEATHER AND/OR OBSTRUCTIONS TO VISIBILITY. N/A MEANS
CURRENT SKY AND/OR WEATHER CONDITIONS ARE NOT AVAILABLE.

MNZ060>063-068>070-231900-
   Twin Cities Metro

CITY           SKY/WX    TMP DP  RH WIND       PRES   REMARKS
TWIN CITIES    CLOUDY    39  24  55 S18G26    30.04S
6HR MIN TEMP:  37; 6HR MAX TEMP:  40;

ST PAUL        CLOUDY    39  25  57 SE20      30.05F
CRYSTAL        CLOUDY    39  23  52 SE17G29   30.01F
BLAINE         CLOUDY    41  25  52 SE15G21   30.02F
LAKEVILLE      CLOUDY    36  28  75 S14G21    30.02F
EDEN PRAIRIE   CLOUDY    40  25  55 SE13      30.00F
6HR MIN TEMP:  37; 6HR MAX TEMP:  40;

SOUTH ST PAUL  CLOUDY    39  24  54 S10G17    30.04F
LAKE ELMO      CLOUDY    37  27  65 S14       30.06S
$$
MNZ001>005-007-008-013>017-022>024-027-028-231900-
   Northwest Minnesota

CITY           SKY/WX    TMP DP  RH WIND       PRES   REMARKS
BEMIDJI        LGT RAIN  35  29  79 S13       29.86F WCI  27
HALLOCK        CLOUDY    36  30  80 S10       29.83S
ROSEAU         CLOUDY    39  30  70 S15       29.84R
WARROAD        CLOUDY    39  28  65 S7        29.84S
THIEF RVR FALL MIX PCPN  35  31  85 S10       29.86S FOG     WCI  27
CROOKSTON      MIX PCPN  34  34 100 S5        29.84F WCI  30
FOSSTON        CLOUDY    36  30  80 SE3       29.85F
DETROIT LAKES  CLOUDY    37  27  65 SE15      29.84F
MOORHEAD       CLOUDY    43  28  56 S22G28    29.84R
PARK RAPIDS    CLOUDY    38  23  55 S16       29.88F
MAHNOMEN       FAIR      39  28  66 SE9       29.82F
$$
MNZ006-009>011-018-025>026-231900-
   North Central Minnesota

CITY           SKY/WX    TMP DP  RH WIND       PRES   REMARKS
BAUDETTE       CLOUDY    39  24  55 S12       29.85F
FLAG ISLAND    CLOUDY    34  28  80 S9        29.83F WCI  26
INTL FALLS     CLOUDY    40  23  50 S6G17     29.89F
6HR MIN TEMP:  31; 6HR MAX TEMP:  40;

WASKISH        DRIZZLE   39  28  65 S7G17     29.87S
BIG FORK       CLOUDY    39  23  52 S14       29.89F
LONGVILLE      DRIZZLE   37  25  60 SE13G20   29.89F
GRAND RAPIDS   LGT RAIN  36  23  59 S13G20    29.94F
CRANE LAKE     CLOUDY    36  21  55 S10       29.96F
ORR            CLOUDY    37  19  48 S13G20    29.91F
COOK           CLOUDY    37  23  56 S9        29.94F
WALKER         CLOUDY    37  25  62 SE12      29.88F
$$
MNZ012-019>021-037-231900-
   Northeast Minnesota

CITY           SKY/WX    TMP DP  RH WIND       PRES   REMARKS
DULUTH         CLOUDY    36  24  62 S14       30.00F
6HR MIN TEMP:  29; 6HR MAX TEMP:  36; 6HR PCP: TRACE;

ELY            CLOUDY    36  23  60 S10       29.97F HAZE
HIBBING        CLOUDY    34  21  59 S9G18     29.96F WCI  27
EVELETH        CLOUDY    37  20  49 S14       29.98F
DULUTH HARBOR  CLOUDY    37  27  65 CALM      30.05F
TWO HARBORS    CLOUDY    37  27  65 S6        30.01F
SILVER BAY     CLOUDY    34  27  75 S6        30.01F WCI  29
GRAND MARAIS     N/A     34  29  82 SW5       30.08F WCI  30
G MARAIS ARPRT CLOUDY    28  21  74 S6        30.02F WCI  22
$$
MNZ029>031-032-039>041-046>048-054>057-064-231900-
   West Central Minnesota

CITY           SKY/WX    TMP DP  RH WIND       PRES   REMARKS
FERGUS FALLS   CLOUDY    39  25  56 SE17G25   29.87F
WHEATON        CLOUDY    43  27  52 SE17G29   29.83F
MORRIS         CLOUDY    43  27  52 SE22G31   29.84F
ALEXANDRIA     CLOUDY    40  25  55 SE18G25   29.89F
ELBOW LAKE     FAIR      40  25  54 SE24G30   29.85S HAZE
WADENA         CLOUDY    37  25  60 SE14G20   29.88F
GLENWOOD       CLOUDY    39  27  60 SE24      29.89F
APPLETON       CLOUDY    45  27  49 SE14G22   29.83F
BENSON         CLOUDY    45  23  42 S20       29.90F
ORTONVILLE     CLOUDY    41  27  56 SE16G24   29.82F
MADISON        DRIZZLE   43  34  70 S20       29.83F
WILLMAR        CLOUDY    43  28  56 SE21      29.91F
$$
MNZ033>034-036-042>043-049>051-058-059-231900-
   Central Minnesota

CITY           SKY/WX    TMP DP  RH WIND       PRES   REMARKS
ST CLOUD       CLOUDY    39  26  59 S14       29.96F
6HR MIN TEMP:  36; 6HR MAX TEMP:  40;

SAUK CENTRE    CLOUDY    38  25  61 SE17      29.91F
PAYNESVILLE      N/A     39  26  60 SE14G24   29.93F
AITKIN         CLOUDY    41  19  42 S12G18    29.95F
PINE RIVER     CLOUDY    39  25  56 SE14      29.94F
BRAINERD       LGT RAIN  38  24  57 S16G22    29.94F
STAPLES        CLOUDY    37  23  56 SE12      29.90F
LONG PRAIRIE   CLOUDY    36  27  69 E15G21    29.90F
LITTLE FALLS   CLOUDY    37  23  56 SE14      29.94F
LITCHFIELD     CLOUDY    39  28  65 SE13G18   29.94F
BUFFALO        CLOUDY    39  26  58 SE12      30.00F
MAPLE LAKE     CLOUDY    40  29  64 SE10G20   29.99F
HUTCHINSON     CLOUDY    40  29  66 SE16      29.95F
$$
MNZ037-044-045-052-053-231900-
   East Central Minnesota

CITY           SKY/WX    TMP DP  RH WIND       PRES   REMARKS
PRINCETON      CLOUDY    41  25  52 SE10      30.01F
MORA           CLOUDY    37  23  56 SE7       30.02F
CAMBRIDGE      CLOUDY    43  27  52 SE9       29.99F
RUSH CITY      CLOUDY    39  25  57 S9        30.03F
MOOSE LAKE     CLOUDY    37  23  56 S6        29.99F
HINCKLEY       CLOUDY    39  27  60 S14       30.03S
CLOQUET        CLOUDY    36  21  55 S8        30.00F
MCGREGOR       CLOUDY    37  27  65 S9        29.99F
$$
MNZ071>073-080-081-089-090-097-098-231900-
   Southwest Minnesota

CITY           SKY/WX    TMP DP  RH WIND       PRES   REMARKS
MONTEVIDEO     CLOUDY    43  28  56 S13G20    29.87F
GRANITE FALLS  CLOUDY    44  31  60 SE15      29.87F
CANBY          CLOUDY    41  32  69 E13       29.84F
MARSHALL       CLOUDY    41  27  57 S18G26    29.84F
REDWOOD FALLS  CLOUDY    42  28  57 S21G28    29.92F
OLIVIA         CLOUDY    41  28  60 SE18G24   29.89F
PIPESTONE      CLOUDY    41  27  56 S16G23    29.80F
WINDOM         CLOUDY    39  28  65 SE16G22   29.88F
WORTHINGTON    PTSUNNY   41  29  62 SE26G33   29.82F
JACKSON        CLOUDY    37  30  75 SE18G25   29.86F
TRACY          CLOUDY    42  30  63 S15G26    29.86F
SLAYTON        CLOUDY    37  29  72 SE16G23   29.85F
$$
MNZ065>067-074>077-082>085-091>093-231900-
   South Central Minnesota

CITY           SKY/WX    TMP DP  RH WIND       PRES   REMARKS
MANKATO        CLOUDY    38  29  70 SE21      29.97F
NEW ULM        CLOUDY    39  27  60 SE16G25   29.92F
ST JAMES       LGT RAIN  37  32  81 E22       29.87F
FAIRMONT       LGT RAIN  38  29  70 SE25      29.90F
GLENCOE        CLOUDY    40  30  68 SE15      29.95F
FARIBAULT      CLOUDY    37  28  70 SE12G23   30.01F
OWATONNA       PTSUNNY   37  27  65 SE14G29   30.00F
WASECA         CLOUDY    36  28  75 SE15G22   30.01F
ALBERT LEA     CLOUDY    37  27  65 S20       30.00F
$$
MNZ078>079-086>088-094>096-231900-
   Southeast Minnesota

CITY           SKY/WX    TMP DP  RH WIND       PRES   REMARKS
ROCHESTER      CLOUDY    36  28  73 S18G30    30.06F
6HR MIN TEMP:  33; 6HR MAX TEMP:  37; 6HR PCP: TRACE;

RED WING       CLOUDY    39  19  45 S13G22    30.08R
STANTON        CLOUDY    38  28  65 S16G22    30.02F
DODGE CENTER   CLOUDY    36  28  75 SE23G29   30.03F
WINONA         CLOUDY    41  23  48 SE12      30.11F
AUSTIN         CLOUDY    36  27  69 SE12G20   30.03F
PRESTON        CLOUDY    37  26  63 S22G29    30.08F
$$
ABBREVIATIONS USED IN REMARKS
   TC - TEMPERATURES IN CELSIUS
  WCI - WIND CHILL INDEX
   HX - HEAT INDEX
  VSB - VISIBILITY
$$



USA.gov is the U.S. government's official web portal to all federal, state and local government web resources and services.